{"data":{"norad_id":59436,"intl_designator":"2024-065R","name":"STARLINK-31700","alt_names":[],"object_type":"PAYLOAD","status":"ACTIVE","operator":null,"country":"US","launch_date":"2024-04-07","launch_site_code":"AFWTR","launch_vehicle":null,"mission":null,"orbit_class":"UNKNOWN","rcs_meters":null,"size_class":null,"mass_kg":null,"dimensions":null,"purposes":["comms"],"wikipedia_slug":null,"has_3d_model":false,"image_url":null,"decayed_at":null,"tle_current":{"epoch":"2026-05-25T02:51:31.991328Z","epoch_age_seconds":60832,"freshness":"FRESH","line1":"1 59436U 24065R   26145.11912027  .00009202  00000+0  32283-3 0  9998","line2":"2 59436  53.1610 286.4861 0001528  84.4399 275.6776 15.30160891120639","mean_motion":15.30160891,"eccentricity":0.0001528,"inclination_deg":53.161,"raan_deg":286.4861,"arg_perigee_deg":84.4399,"mean_anomaly_deg":275.6776,"bstar":0.00032283,"rev_number":12063,"period_min":94.107750921468,"perigee_km":474.28463429159,"apogee_km":476.37905437042,"semimajor_km":6853.468844331,"source":"CELESTRAK","updated_at":"2026-05-25T13:38:18.946905Z"}}}